Location: Newark
(40.7066°N, 111.8219°W)
Time: 20:35:54
(UTC+00:00)

Transit 2A Rocket - Pass Details

Date: 22 November 2019
Orbit: 594 x 909 km, 66.7° (Epoch: 05 December)

Event Time Altitude Azimuth Distance (km) Brightness Sun altitude
Rises 12:28:19 0° 338° (NNW) 2,848 - -21.3°
Reaches altitude 10° 12:30:42 10° 348° (NNW) 1,956 - -20.9°
Exits shadow 12:31:26 14° 353° (N) 1,702 6.6 -20.7°
Maximum altitude 12:34:42 34° 54° (NE) 1,027 6.0 -20.1°
Drops below altitude 10° 12:38:53 10° 120° (ESE) 2,049 8.3 -19.3°
Sets 12:41:25 0° 129° (SE) 3,004 9.2 -18.9°
